Вернуться в каталог

STARLINK-34730

АктивенСвязьSSO
NORAD 64938·PAYLOAD·🇺🇸 United States

Запущен Jul 26, 2025 с Vandenberg Space Force Base

Loading…

Ближайшие Пролёты (ближайшие 24 часа)

TLE

СвежийSource: CelesTrak SupGP

Эпоха: Sep 14, 2026, 22:27 UTC

1 64938C 25158G   26257.93590278  .00067944  00000+0  21098-2 0  2574
2 64938  97.2848 116.3183 0001584  94.1786 266.1571 15.33393802    12

Отслеживайте STARLINK-34730 в реальном времени с AllMySat

Download on the App Store